CAPE
166 190 130 89 184 183 246 352 314 351 258 321 241 100 115 61 34 47 161 32 14 5 0 0 0 0 0 0 0 2 0 5 5 11 10 9 4 4 4 14 10 8 9 0 56 109 112 188 230 469 526 690 972 1062 975 1269 976 1139 1191 1555 1282 1318 1323 905 1265 1214 1281 895 650 574 530 709 940 1169 1144 1551 1949 1817 1790 1110 845 879 975 1086 1094
242 434 288 301 264 363 381 324 356 276 290 328 245 116 88 48 90 64 18 142 4 19 78 25 0 0 0 0 0 0 0 2 0 9 22 18 22 17 28 36 17 9 10 9 52 27 57 91 184 235 373 416 733 883 891 952 1280 866 770 1099 1130 1058 1260 1081 1034 1567 984 958 879 614 522 652 765 925 1127 1400 1731 2026 1422 1396 1270 1009 1008 954 989
249 240 282 226 332 165 233 439 416 426 388 408 588 230 193 190 48 81 11 91 31 25 45 30 0 0 0 0 0 0 0 5 2 10 21 18 32 24 24 29 17 9 4 8 6 17 82 128 166 212 147 351 452 544 704 925 748 692 701 916 1019 1436 1306 1452 1213 1327 968 1151 639 609 539 494 527 612 1034 1288 1780 1597 1475 1524 1671 1407 1130 1050 1056
359 322 454 323 368 403 299 416 544 509 530 369 625 301 148 402 24 143 46 107 40 60 53 10 4 0 0 0 1 2 0 3 3 3 5 10 17 21 16 8 7 9 4 0 3 8 40 90 137 152 143 246 338 436 528 592 870 879 742 943 899 769 1206 1205 1412 1124 1231 778 552 650 804 621 447 750 853 959 1550 1724 1474 1662 1842 1632 984 1430 906
440 171 596 535 535 512 312 516 543 622 698 421 674 516 89 234 59 83 171 56 30 20 39 0 36 0 1 0 0 0 1 2 7 4 5 11 22 17 15 13 5 2 9 7 6 5 16 83 108 86 79 119 189 321 431 464 560 659 856 861 972 804 799 1167 1147 925 1091 1239 1137 595 435 371 496 439 309 651 1405 1367 1486 1598 1390 975 1249 912 1290
545 694 477 659 755 809 782 625 569 438 524 726 728 636 296 390 220 72 222 84 49 0 11 24 39 0 0 0 0 0 0 2 3 6 11 17 27 30 40 29 17 18 13 15 14 18 31 78 100 90 68 77 108 143 161 327 473 682 993 980 784 657 761 916 837 750 1255 1381 999 1378 1458 1253 662 442 496 602 1236 1197 1442 1573 1563 1386 1068 1059 843
670 387 435 820 861 550 772 852 416 341 379 626 724 625 406 562 224 80 216 174 5 1 3 5 3 3 0 0 0 0 0 2 3 12 14 22 28 31 40 35 22 15 22 19 17 17 28 177 131 118 91 90 163 229 269 314 374 545 864 997 947 733 682 848 955 777 1039 778 897 1110 1104 1092 914 1065 814 671 393 993 905 1061 1438 1305 1130 874 781
837 590 725 820 655 452 635 870 774 306 379 452 870 755 466 287 400 116 174 95 62 0 3 32 0 2 0 0 0 2 0 0 1 10 16 20 17 23 29 34 44 32 28 26 18 12 35 196 124 123 160 131 151 195 315 347 428 570 852 907 643 869 793 649 633 654 869 825 804 823 768 816 713 899 1094 706 559 481 609 1145 1297 1375 1113 788 720
949 767 688 595 460 346 664 937 800 589 420 665 492 723 716 536 451 156 160 125 192 0 0 8 10 0 5 0 0 0 0 0 0 6 15 22 18 22 23 32 65 55 37 35 26 15 62 186 167 135 137 123 150 200 324 349 462 553 615 719 582 568 809 715 640 542 552 591 400 612 654 629 765 822 768 775 634 448 450 360 563 1209 1214 1004 737
903 916 858 793 793 787 808 879 858 680 665 630 596 650 582 554 404 296 120 249 232 23 44 1 0 4 3 0 0 0 0 2 3 13 20 19 16 16 26 34 50 60 70 41 28 18 75 143 169 142 146 161 243 211 193 283 382 449 524 697 506 576 500 504 590 600 813 709 546 489 564 563 626 585 561 636 637 684 570 552 731 840 780 852 691
829 1036 944 914 1007 1061 985 958 838 890 983 708 650 338 583 592 542 336 268 365 108 94 3 1 3 2 0 0 0 0 0 0 1 6 12 15 13 10 14 30 44 67 121 99 60 44 126 132 152 130 145 192 192 150 144 227 332 360 462 509 597 460 573 404 531 794 673 694 695 527 494 679 621 643 728 661 744 775 701 613 659 518 488 698 1026
552 615 438 738 762 995 1210 1075 1113 1017 913 723 615 474 527 500 531 438 381 257 193 161 23 7 19 0 0 0 0 0 0 0 1 8 14 12 16 12 26 44 52 60 99 106 116 90 107 176 132 143 132 121 148 140 148 160 206 295 431 466 546 607 882 782 618 751 782 746 786 674 642 596 611 714 660 561 571 829 926 915 885 915 832 740 770
394 490 425 778 661 1020 1073 1055 1086 964 864 825 829 732 568 616 453 485 410 324 307 163 36 14 3 2 0 0 0 2 0 0 0 5 23 16 20 13 19 28 35 38 75 86 93 100 76 140 203 210 183 188 185 166 147 170 164 226 326 420 466 485 482 636 416 688 546 496 659 772 644 546 497 524 459 532 698 909 1018 685 765 742 504 686 768
590 366 680 205 946 955 854 839 822 992 823 1042 974 988 738 493 522 485 478 407 313 195 45 2 0 3 4 0 0 4 1 0 2 6 13 23 20 13 13 35 38 61 56 88 96 82 83 83 73 135 133 112 130 128 147 150 172 199 224 288 420 580 597 529 614 558 569 692 696 762 736 660 631 528 495 601 842 956 691 657 564 565 724 719 952
204 420 168 832 856 491 791 1015 1020 1050 982 1026 1218 1123 950 821 629 541 448 325 358 222 122 14 66 3 0 0 0 3 0 8 6 3 10 19 26 18 24 38 57 52 61 84 86 71 93 80 78 87 127 178 160 167 190 166 175 182 222 293 353 488 535 582 514 531 737 787 866 724 604 674 557 473 464 530 754 1043 852 759 599 517 402 457 635
59 23 89 333 801 666 906 672 1268 605 972 1104 1150 1330 1303 1043 908 744 620 380 375 222 136 101 8 42 1 0 0 4 7 14 16 12 14 24 25 29 25 42 61 74 83 74 74 79 71 82 72 70 61 105 146 154 145 140 168 179 177 236 269 383 455 523 575 685 728 851 666 506 439 722 754 606 534 574 561 902 998 924 530 489 477 375 445
30 89 120 642 434 585 710 938 1212 1105 1060 1265 1320 1330 1296 1241 1148 982 746 512 362 333 272 67 60 13 1 0 0 3 1 5 15 1 14 16 31 50 52 52 62 79 52 55 72 50 74 66 56 50 45 47 55 100 157 136 127 166 201 193 240 354 395 415 484 629 806 770 680 444 534 516 814 621 492 447 429 769 990 850 690 615 699 426 498
49 40 138 364 606 366 281 447 402 754 1012 1301 1330 1269 1450 1410 1253 1067 856 586 414 325 232 166 72 22 7 1 0 6 2 0 1 2 18 28 32 47 62 40 33 29 35 50 42 44 43 50 47 30 27 25 38 48 121 116 106 159 162 191 240 334 390 406 436 476 487 483 496 743 512 555 565 528 535 485 464 701 639 948 1018 936 856 743 779
104 314 219 271 409 499 712 641 460 638 824 935 939 1414 1509 1490 1307 1119 870 706 602 477 308 254 147 22 13 0 0 5 1 0 1 4 21 24 22 33 40 50 27 65 80 45 52 26 24 33 34 28 19 15 19 38 64 116 155 177 166 167 207 239 326 451 460 528 490 354 417 532 653 648 608 574 489 547 577 573 631 579 1010 1029 855 658 722
126 93 155 268 657 456 578 696 306 617 450 771 1076 938 1035 1370 1391 1082 889 688 584 466 459 302 114 50 4 0 0 0 0 2 4 4 16 17 18 32 32 33 37 32 35 28 21 18 17 12 10 11 13 12 12 22 41 63 105 163 131 146 143 150 204 328 550 455 357 385 376 488 619 533 583 501 574 612 761 610 585 587 572 846 964 989 859
206 176 114 339 710 797 780 1044 680 560 706 1142 860 938 972 1085 1221 910 887 702 554 555 457 279 154 61 4 0 0 4 6 18 10 4 8 23 36 43 38 42 27 39 30 23 13 12 12 11 6 8 4 8 14 18 39 56 62 58 72 98 97 94 117 141 463 502 411 398 509 495 578 558 491 595 474 516 531 562 491 468 505 612 638 790 925
577 501 392 561 758 576 602 696 411 286 675 1197 597 717 457 723 534 1055 914 665 564 563 391 310 162 61 0 0 0 13 20 24 13 16 16 20 35 54 35 24 34 36 32 22 6 6 12 7 7 10 11 13 18 21 29 45 52 51 40 63 90 33 61 125 396 520 328 295 350 392 494 469 429 395 524 466 470 404 495 428 724 733 694 831 989
231 120 118 516 676 585 622 753 636 434 900 795 642 721 481 422 299 377 668 716 606 598 358 285 236 97 0 0 11 22 21 25 21 24 16 27 34 53 37 35 31 30 33 31 18 13 11 6 7 12 16 14 6 7 21 34 30 26 27 19 28 14 17 102 116 407 556 559 416 335 404 478 345 417 410 413 378 376 414 533 590 552 539 582 854
49 122 315 416 256 402 293 224 385 431 977 993 669 529 505 430 352 223 531 652 591 489 339 228 173 78 0 1 5 13 18 24 27 33 19 27 29 48 35 35 28 38 27 31 20 6 2 5 4 3 5 6 6 6 10 20 26 27 5 2 0 1 14 76 128 222 302 312 365 486 453 464 409 401 497 521 400 377 412 473 421 526 527 543 702
28 98 349 460 131 148 78 27 479 440 816 997 444 595 535 503 592 408 457 488 460 437 280 173 137 21 16 2 12 19 20 24 15 22 21 23 31 43 42 23 32 34 28 26 21 14 7 2 10 7 10 11 10 7 4 15 7 4 8 6 4 2 15 74 140 205 445 352 426 490 470 470 489 400 388 500 607 558 530 492 433 481 458 539 457
122 150 313 681 274 252 286 156 102 153 829 747 793 691 620 488 833 891 670 612 496 460 333 247 143 65 0 13 23 21 13 8 6 11 23 30 38 42 31 42 28 11 25 29 25 18 17 5 5 5 12 7 8 10 14 4 5 4 2 3 3 2 1 13 105 199 230 264 263 371 401 458 445 335 359 398 510 476 420 420 429 422 523 488 436
11 167 50 257 592 328 205 489 173 99 70 122 60 114 205 569 850 842 751 721 627 611 350 243 138 1 0 4 0 8 7 12 6 6 18 23 34 40 33 28 34 30 24 27 26 15 20 11 8 15 10 10 7 11 20 14 6 2 1 0 0 0 0 1 83 128 212 263 303 414 443 491 469 444 428 497 592 384 409 507 445 373 402 453 388
3 228 275 235 260 427 96 724 311 108 112 198 30 34 72 214 223 533 751 879 830 578 334 155 52 16 5 0 0 3 3 0 0 6 21 39 40 42 39 38 35 36 36 24 24 24 26 19 17 18 21 25 20 17 22 13 4 0 1 0 0 79 38 39 122 130 198 237 428 251 436 562 502 550 600 465 421 418 352 416 387 424 462 373 387
0 0 14 166 82 110 301 369 379 340 299 279 154 142 306 316 276 202 640 718 627 464 244 90 37 48 0 0 8 12 20 0 0 0 16 23 34 37 41 33 32 38 42 30 20 22 22 20 21 18 18 23 30 28 12 3 2 0 0 0 0 15 152 56 74 104 80 320 223 502 556 470 516 732 476 444 408 398 557 396 378 389 375 514 419
0 2 29 144 342 166 212 364 302 159 130 161 261 325 329 466 291 317 339 596 543 420 182 72 25 2 10 1 6 8 0 0 0 9 22 30 26 38 41 42 33 30 24 23 25 32 31 28 13 20 23 35 38 15 4 0 0 0 0 0 0 0 55 19 0 9 82 140 376 536 342 524 593 600 556 386 151 98 223 452 400 422 413 447 492
3 2 0 0 52 54 35 35 16 39 226 422 516 480 527 426 290 254 172 362 223 252 166 77 7 0 0 0 0 0 0 0 1 15 34 18 15 35 40 32 33 25 33 29 20 16 25 36 31 25 24 30 46 12 4 0 0 0 0 0 0 0 0 1 2 27 25 44 110 334 418 500 569 528 563 307 264 5 0 0 0 12 10 128 265
0 0 0 0 0 0 19 28 54 49 41 65 177 268 267 234 211 122 86 174 354 215 122 32 0 0 0 0 0 0 0 0 0 0 6 15 14 11 14 22 34 34 36 32 21 23 24 31 44 33 30 29 38 10 8 2 0 0 0 0 0 0 0 0 2 0 54 134 275 348 484 307 398 442 628 478 396 184 8 5 0 0 0 0 0
0 0 0 0 0 2 101 76 4 5 0 0 0 76 117 54 102 201 83 138 98 142 46 0 0 0 0 2 0 0 0 0 1 1 12 11 9 4 11 13 16 20 22 20 23 27 28 31 46 36 32 34 31 17 6 1 0 0 0 0 0 0 0 0 1 0 48 166 218 319 417 316 290 304 287 458 414 272 366 32 0 0 0 11 1
0 0 0 0 1 11 24 17 3 0 0 8 0 0 36 22 0 0 13 0 0 0 18 0 0 0 0 0 0 0 0 0 0 1 4 1 2 10 15 19 24 26 29 28 27 33 28 30 41 34 31 36 44 17 4 0 0 0 0 1 1 0 0 0 14 32 179 250 245 228 258 326 386 204 4 65 341 365 259 253 99 36 0 0 0
0 0 0 2 2 2 20 14 4 0 3 15 0 0 13 0 0 0 0 0 0 0 0 0 0 0 0 0 0 0 0 0 0 0 0 0 4 14 16 22 26 24 25 25 24 21 26 35 39 35 28 38 22 5 2 0 0 0 0 3 1 1 72 102 100 142 206 188 59 11 119 225 282 194 0 0 0 217 193 334 227 15 1 0 0
0 0 5 17 15 29 42 15 3 35 4 0 2 0 0 0 0 0 0 0 0 0 0 0 0 0 0 0 0 0 0 0 0 0 0 0 11 28 23 23 24 26 28 30 32 32 29 29 29 30 30 29 6 4 1 0 0 0 0 0 0 38 58 79 95 125 86 48 0 0 0 35 100 0 0 0 2 31 249 295 284 283 0 0 0
0 0 0 0 24 35 37 17 62 88 43 33 1 0 0 0 0 0 0 0 0 0 0 0 0 0 0 0 0 0 0 0 0 0 0 5 9 14 24 30 24 23 28 31 28 28 23 23 30 34 32 30 14 4 0 0 0 0 0 0 29 32 27 64 47 53 20 0 0 0 0 0 83 126 65 4 0 108 400 310 336 256 0 0 0
6 8 10 7 21 23 71 109 74 98 124 76 17 5 2 2 0 0 0 0 0 0 0 0 0 0 0 0 0 0 0 0 0 0 0 3 8 20 24 43 30 23 27 23 23 21 19 29 37 27 33 27 12 3 2 0 0 0 0 0 4 0 15 51 72 37 45 0 0 0 0 0 0 15 37 106 157 363 345 214 269 23 0 1 0
13 30 15 14 28 39 37 67 80 99 127 98 98 79 24 4 5 13 0 0 0 0 0 0 0 0 0 0 0 0 0 0 0 0 0 0 0 10 12 19 28 24 24 30 21 16 26 41 41 40 26 40 20 17 0 0 0 0 0 0 0 0 4 60 19 41 28 4 0 0 0 0 0 2 33 119 208 296 187 0 149 41 27 2 0
7 18 10 2 3 9 44 32 77 103 120 70 101 36 40 20 16 24 8 1 0 0 0 0 0 0 0 0 0 0 0 0 0 0 0 0 1 4 9 6 9 4 4 9 20 19 33 32 29 36 40 27 34 10 0 0 0 0 3 1 1 0 1 0 16 12 27 5 0 0 0 6 30 28 18 147 179 214 192 54 66 109 15 0 3
11 34 18 14 14 38 35 50 50 78 66 67 97 102 91 35 37 30 15 19 4 0 0 0 0 0 0 0 0 0 0 0 0 0 0 0 0 0 6 10 2 0 6 16 24 23 29 41 45 37 32 25 14 6 0 0 0 0 3 7 0 6 6 4 3 11 18 0 4 0 0 13 30 23 22 144 190 190 135 63 124 122 12 4 5
7 22 19 74 53 72 53 54 82 72 100 70 69 97 73 62 47 41 45 50 5 0 0 0 0 0 0 0 0 0 0 0 0 0 0 0 0 1 0 0 0 0 0 0 0 9 24 28 41 29 31 16 4 1 0 0 0 0 2 5 2 0 1 1 2 8 9 2 0 0 1 15 32 29 25 83 174 154 174 4 2 18 3 5 3
24 46 55 12 11 25 25 38 54 75 47 83 105 101 74 117 89 92 100 39 14 0 0 0 0 0 0 0 0 0 0 0 0 0 0 0 1 0 2 1 0 0 0 0 0 0 10 27 30 32 47 22 4 0 0 0 0 2 3 5 3 2 1 0 2 2 0 0 0 0 2 10 13 22 26 49 59 34 29 19 11 66 2 2 2
10 14 32 18 9 2 12 24 24 34 32 37 114 106 96 97 144 160 94 74 53 1 0 0 0 0 0 0 0 0 0 0 0 0 0 0 0 0 0 0 0 0 0 0 0 1 23 25 24 23 25 12 14 0 0 0 0 2 7 6 8 4 2 3 2 3 1 0 0 0 3 10 10 15 21 31 39 27 19 14 18 17 13 7 2
21 28 20 4 1 11 7 2 16 43 44 36 61 121 95 102 151 153 52 9 24 8 1 0 0 0 0 0 0 0 0 0 0 0 0 0 0 0 0 0 0 0 0 0 0 11 25 18 12 20 12 13 0 0 0 0 0 1 5 5 5 2 0 0 0 0 0 0 0 0 1 4 9 14 15 12 17 16 14 13 13 7 8 13 9
9 9 11 2 5 4 7 7 2 26 49 62 78 110 190 193 155 126 65 16 15 16 1 0 0 0 0 0 0 0 0 0 0 0 0 0 0 0 0 0 0 0 0 3 9 9 10 12 1 18 16 0 0 0 0 0 3 3 3 1 0 0 0 0 0 0 0 0 0 0 0 1 2 4 8 11 12 9 7 8 10 9 5 5 6
8 14 8 0 0 1 1 14 33 34 36 19 47 71 154 265 161 82 40 18 12 41 9 0 0 0 0 0 0 0 0 0 0 0 0 0 0 0 0 0 0 0 8 6 9 3 4 2 14 19 0 0 0 2 2 5 3 1 0 0 0 0 0 0 0 0 0 0 2 4 2 2 4 4 4 9 8 8 9 6 2 1 3 4 4
2 1 6 1 0 0 4 6 17 40 34 22 24 37 65 117 171 166 97 33 42 61 39 2 0 0 0 0 0 0 0 0 0 0 0 0 0 0 0 4 8 2 10 2 10 1 0 0 3 3 14 4 6 10 19 25 10 0 0 0 0 0 0 0 0 0 4 2 1 1 3 9 4 5 5 2 1 4 6 3 1 0 2 1 0
0 4 4 0 0 0 2 10 17 26 39 26 32 48 38 106 177 263 239 96 71 66 15 25 4 0 0 0 0 0 0 0 0 0 0 0 0 0 0 0 0 0 0 0 0 0 0 0 0 0 0 1 6 12 20 18 9 4 2 0 0 1 2 0 0 2 3 5 6 9 4 6 10 11 12 11 10 6 4 2 0 0 0 1 3
0 1 0 0 0 5 14 9 2 12 20 18 46 46 52 24 44 85 222 188 129 107 107 28 4 0 0 0 0 0 0 0 0 0 0 0 0 0 0 0 0 0 0 0 0 0 0 0 0 0 0 0 6 3 9 9 9 6 3 0 2 0 0 0 0 1 2 2 4 4 8 5 10 9 9 8 7 8 9 6 3 3 2 3 7
1 0 0 0 0 1 1 3 14 22 15 12 35 33 46 55 52 86 160 279 180 104 35 23 2 0 0 0 0 0 0 0 0 0 0 0 0 0 0 0 0 0 0 0 0 0 0 0 0 0 0 0 0 0 0 3 2 0 0 0 0 0 0 0 0 0 0 0 0 0 0 0 0 0 2 3 5 8 8 4 3 0 3 3 2
Wind_Speed
28 26 27 nan 27 27 26 26 26 27 26 26 26 nan 23 nan nan nan 28 nan nan nan nan nan nan nan nan nan nan nan nan nan nan nan nan nan nan nan nan nan nan nan nan nan nan 14 14 14 14 15 15 15 16 17 16 17 16 15 17 20 21 20 21 26 19 24 27 27 21 16 17 18 17 17 16 16 17 19 18 17 13 13 11 12 11
27 26 26 25 25 25 25 25 25 26 25 25 25 23 nan nan nan nan nan 29 nan nan nan nan nan nan nan nan nan nan nan nan nan nan nan nan nan nan nan nan nan nan nan nan nan nan nan nan 15 15 15 15 16 16 17 16 16 20 17 19 21 20 20 25 23 25 26 26 24 22 22 22 18 16 15 15 17 19 21 18 17 13 13 11 12
19 25 22 24 25 24 24 23 23 23 24 23 22 22 21 23 nan nan nan nan nan nan nan nan nan nan nan nan nan nan nan nan nan nan nan nan nan nan nan nan nan nan nan nan nan nan nan 15 15 15 15 17 17 17 18 18 17 17 16 17 20 21 22 25 24 24 25 28 29 27 24 22 22 21 18 16 18 21 22 21 18 18 14 12 13
19 14 21 23 23 23 21 21 21 20 23 22 21 22 19 24 nan 27 nan 26 nan nan nan nan nan nan nan nan nan nan nan nan nan nan nan nan nan nan nan nan nan nan nan nan nan nan nan nan 16 17 17 17 18 18 18 17 18 20 19 17 18 20 22 24 24 23 22 28 27 26 27 26 25 23 22 22 20 21 22 21 21 19 20 16 13
25 14 19 20 23 20 19 21 21 18 22 23 24 22 nan 26 nan nan 27 nan nan nan nan nan nan nan nan nan nan nan nan nan nan nan nan nan nan nan nan nan nan nan nan nan nan nan nan nan 16 nan nan 18 18 18 19 19 19 19 19 18 20 19 20 24 23 21 21 24 28 30 29 27 26 26 23 20 22 21 20 21 20 20 19 19 17
27 28 20 19 23 20 16 20 23 20 21 21 25 22 24 25 26 nan 27 nan nan nan nan nan nan nan nan nan nan nan nan nan nan nan nan nan nan nan nan nan nan nan nan nan nan nan nan nan 17 nan nan nan 18 18 19 19 19 20 22 23 20 19 19 24 23 22 25 25 27 27 29 28 28 26 25 22 23 19 21 22 22 22 22 20 18
27 28 25 24 27 19 13 19 23 21 23 22 24 23 21 26 26 nan 25 26 nan nan nan nan nan nan nan nan nan nan nan nan nan nan nan nan nan nan nan nan nan nan nan nan nan nan nan 17 18 17 nan nan 18 18 18 18 18 20 23 25 23 25 23 21 22 25 25 25 24 25 27 28 28 27 24 26 25 24 21 21 23 24 23 21 18
25 24 25 26 25 24 22 23 22 23 23 23 24 24 23 24 26 24 24 nan nan nan nan nan nan nan nan nan nan nan nan nan nan nan nan nan nan nan nan nan nan nan nan nan nan nan nan 17 18 18 19 19 19 19 19 19 19 20 23 24 23 24 24 21 21 23 24 27 25 26 25 23 25 25 26 27 27 27 24 23 24 25 24 21 20
25 25 25 26 24 23 24 24 23 21 22 25 26 24 24 23 25 24 23 23 25 nan nan nan nan nan nan nan nan nan nan nan nan nan nan nan nan nan nan nan nan nan nan nan nan nan nan 18 19 19 19 19 19 19 19 20 20 21 21 23 23 22 26 25 23 23 25 26 27 26 25 23 23 24 25 26 26 27 24 24 24 24 22 21 22
28 26 23 24 25 28 26 24 24 21 21 25 26 26 24 24 24 25 23 21 24 nan nan nan nan nan nan nan nan nan nan nan nan nan nan nan nan nan nan nan nan nan nan nan nan nan nan 18 18 17 18 18 18 19 20 20 22 22 22 22 22 23 25 24 22 21 22 26 27 27 26 26 26 27 25 25 25 27 27 27 24 22 20 22 23
25 26 23 21 21 25 26 24 23 24 23 24 23 25 25 24 23 24 23 20 23 nan nan nan nan nan nan nan nan nan nan nan nan nan nan nan nan nan nan nan nan nan 11 nan nan nan 14 16 17 17 17 18 18 19 19 20 21 22 23 22 21 22 23 25 23 20 21 23 27 26 23 25 27 28 28 25 26 29 28 26 25 22 19 20 22
24 24 22 22 24 23 25 23 24 20 22 23 22 21 25 25 24 23 23 20 22 23 nan nan nan nan nan nan nan nan nan nan nan nan nan nan nan nan nan nan nan nan nan 12 13 nan 15 16 18 18 17 17 17 18 19 21 22 23 24 24 23 23 24 25 23 21 21 23 24 25 26 29 28 28 32 30 26 24 27 28 26 26 23 21 24
24 23 19 25 24 23 21 20 21 21 21 22 21 19 23 26 24 24 22 22 22 22 nan nan nan nan nan nan nan nan nan nan nan nan nan nan nan nan nan nan nan nan nan nan nan nan nan 17 19 18 18 19 19 19 20 21 22 23 24 25 24 24 24 25 24 21 22 21 23 24 25 27 27 31 30 28 26 26 26 26 26 27 24 25 24
23 18 21 20 23 19 16 20 21 20 20 21 20 20 20 22 24 24 21 23 23 21 nan nan nan nan nan nan nan nan nan nan nan nan nan nan nan nan nan nan nan nan nan nan nan nan nan nan nan 20 21 22 23 22 21 22 23 24 26 26 26 25 26 25 23 22 22 21 23 23 24 26 28 27 28 28 25 29 26 25 27 28 26 26 27
36 32 34 34 33 28 24 22 18 18 16 18 20 20 21 22 24 23 23 23 23 22 22 nan nan nan nan nan nan nan nan nan nan nan nan nan nan nan nan nan nan nan nan nan nan nan nan nan nan nan 23 24 25 25 24 23 23 24 25 26 26 27 27 27 26 23 22 22 24 24 24 26 27 28 29 26 25 26 27 27 28 29 30 28 25
nan nan nan 27 32 31 32 22 26 24 20 21 23 22 21 23 23 24 23 23 23 23 22 21 nan nan nan nan nan nan nan nan nan nan nan nan nan nan nan nan nan nan nan nan nan nan nan nan nan nan nan 26 27 27 26 26 26 26 26 27 28 28 28 28 26 26 25 25 26 26 24 24 28 28 27 27 26 25 26 29 29 29 30 29 28
nan nan 29 30 28 26 27 26 24 25 22 21 21 22 23 22 23 23 23 23 22 24 22 nan nan nan nan nan nan nan nan nan nan nan nan nan nan nan nan nan nan nan nan nan nan nan nan nan nan nan nan nan nan 28 29 30 29 28 28 28 27 28 28 29 29 28 27 28 28 26 23 23 26 28 27 27 26 24 25 27 29 29 30 29 30
nan nan 24 19 26 28 25 25 21 18 19 22 21 21 21 21 22 22 24 22 23 23 23 23 nan nan nan nan nan nan nan nan nan nan nan nan nan nan nan nan nan nan nan nan nan nan nan nan nan nan nan nan nan nan 32 32 32 32 30 29 28 27 28 28 30 30 30 31 28 27 27 25 26 27 26 25 26 26 25 25 29 29 29 27 30
26 23 24 24 17 17 20 22 21 23 22 20 22 21 19 21 20 21 22 23 22 22 22 22 21 nan nan nan nan nan nan nan nan nan nan nan nan nan nan nan nan nan nan nan nan nan nan nan nan nan nan nan nan nan nan 35 35 34 33 31 30 29 29 29 30 30 30 32 30 27 28 27 27 26 27 27 26 26 25 24 26 29 28 27 28
27 nan 23 21 18 15 12 14 14 19 20 20 21 22 20 20 20 21 20 21 22 21 21 20 21 nan nan nan nan nan nan nan nan nan nan nan nan nan nan nan nan nan nan nan nan nan nan nan nan nan nan nan nan nan nan nan 38 36 35 34 33 31 31 30 30 31 31 32 31 29 29 28 29 29 26 27 29 28 28 28 27 27 28 28 29
22 22 18 21 20 14 12 14 15 14 20 18 16 17 18 18 19 19 19 19 20 21 21 20 20 nan nan nan nan nan nan nan nan nan nan nan nan nan nan nan nan nan nan nan nan nan nan nan nan nan nan nan nan nan nan nan nan nan nan nan nan nan 33 32 32 32 33 32 32 31 31 31 30 30 29 28 28 30 33 27 28 28 27 28 30
23 22 18 14 16 15 8 5 8 12 17 23 16 18 15 18 18 19 19 18 19 21 20 19 19 nan nan nan nan nan nan nan nan nan nan nan nan nan nan nan nan nan nan nan nan nan nan nan nan nan nan nan nan nan nan nan nan nan nan nan nan nan nan 34 33 32 32 35 35 34 31 32 33 29 28 29 29 31 27 24 26 29 28 29 32
26 24 22 23 21 24 24 22 14 16 16 20 14 10 17 17 18 19 23 20 20 20 20 19 19 nan nan nan nan nan nan nan nan nan nan nan nan nan nan nan nan nan nan nan nan nan nan nan nan nan nan nan nan nan nan nan nan nan nan nan nan nan nan 37 34 33 33 33 35 35 32 34 32 31 30 30 33 30 29 27 28 28 26 26 29
nan 26 26 24 22 22 18 19 18 17 20 22 22 17 15 16 19 18 21 23 22 21 20 20 18 nan nan nan nan nan nan nan nan nan nan nan nan nan nan nan nan nan nan nan nan nan nan nan nan nan nan nan nan nan nan nan nan nan nan nan nan nan nan nan 35 36 33 36 34 33 34 34 34 33 33 33 31 29 29 29 28 29 29 26 29
nan nan 27 25 20 16 nan nan 20 20 20 20 22 20 17 16 20 20 19 20 22 23 22 21 21 nan nan nan nan nan nan nan nan nan nan nan nan nan nan nan nan nan nan nan nan nan nan nan nan nan nan nan nan nan nan nan nan nan nan nan nan nan nan nan 37 35 34 34 32 34 34 35 35 35 34 32 32 30 29 30 29 30 27 29 32
18 16 15 16 17 14 11 17 16 19 26 25 22 22 20 19 18 21 20 19 22 23 23 23 23 nan nan nan nan nan nan nan nan nan nan nan nan nan nan nan nan nan nan nan nan nan nan nan nan nan nan nan nan nan nan nan nan nan nan nan nan nan nan nan 37 37 34 36 33 32 31 36 38 38 34 32 30 31 32 28 27 30 30 33 30
nan 21 nan 8 15 20 17 10 11 nan nan 18 nan 20 19 20 20 20 22 19 22 23 22 22 23 nan nan nan nan nan nan nan nan nan nan nan nan nan nan nan nan nan nan nan nan nan nan nan nan nan nan nan nan nan nan nan nan nan nan nan nan nan nan nan nan 37 36 36 35 31 35 36 36 34 35 33 29 30 29 29 28 29 29 30 29
nan 19 20 24 24 21 nan 18 16 16 15 12 nan nan nan 19 19 19 22 23 23 24 23 22 nan nan nan nan nan nan nan nan nan nan nan nan nan nan nan nan nan nan nan nan nan nan nan nan nan nan nan nan nan nan nan nan nan nan nan nan nan nan nan nan 36 34 35 37 35 34 33 34 35 35 34 32 31 30 29 28 28 30 29 30 28
nan nan nan 17 nan 19 19 19 19 18 18 15 14 15 14 15 18 18 21 24 24 24 23 nan nan nan nan nan nan nan nan nan nan nan nan nan nan nan nan nan nan nan nan nan nan nan nan nan nan nan nan nan nan nan nan nan nan nan nan nan nan nan 35 nan nan 33 nan 35 38 36 34 32 31 34 36 37 36 34 30 29 28 27 28 29 30
nan nan nan 18 17 23 24 25 24 21 19 17 15 15 19 15 15 18 20 23 24 24 22 nan nan nan nan nan nan nan nan nan nan nan nan nan nan nan nan nan nan nan nan nan nan nan nan nan nan nan nan nan nan nan nan nan nan nan nan nan nan nan nan nan nan nan nan 34 34 36 36 33 31 33 33 35 36 nan 35 32 28 27 28 28 29
nan nan nan nan nan nan nan nan nan nan 21 21 21 20 20 19 17 18 19 22 25 25 24 nan nan nan nan nan nan nan nan nan nan nan nan nan nan nan nan nan nan nan nan nan nan nan nan nan nan nan nan nan nan nan nan nan nan nan nan nan nan nan nan nan nan nan nan nan 34 35 37 34 32 32 32 35 34 nan nan nan nan nan nan 30 27
nan nan nan nan nan nan nan nan nan nan nan nan 21 21 22 23 21 19 nan 23 23 23 20 nan nan nan nan nan nan nan nan nan nan nan nan nan nan nan nan nan nan nan nan nan nan nan nan nan nan nan nan nan nan nan nan nan nan nan nan nan nan nan nan nan nan nan nan 30 33 34 35 33 34 30 29 30 31 31 nan nan nan nan nan nan nan
nan nan nan nan nan nan 24 nan nan nan nan nan nan nan 21 nan 21 23 nan 21 nan 22 nan nan nan nan nan nan nan nan nan nan nan nan nan nan nan nan nan nan nan nan nan nan nan nan nan nan nan nan nan nan nan nan nan nan nan nan nan nan nan nan nan nan nan nan nan 29 30 31 34 33 33 32 29 28 28 28 29 nan nan nan nan nan nan
nan nan nan nan nan nan nan nan nan nan nan nan nan nan nan nan nan nan nan nan nan nan nan nan nan nan nan nan nan nan nan nan nan nan nan nan nan nan nan nan nan nan nan nan nan nan nan nan nan nan nan nan nan nan nan nan nan nan nan nan nan nan nan nan nan nan 28 28 28 31 32 31 33 36 nan nan 28 28 26 24 nan nan nan nan nan
nan nan nan nan nan nan nan nan nan nan nan nan nan nan nan nan nan nan nan nan nan nan nan nan nan nan nan nan nan nan nan nan nan nan nan nan nan nan nan nan nan nan nan nan nan nan nan nan nan nan nan nan nan nan nan nan nan nan nan nan nan nan nan 24 nan 26 27 25 nan nan 29 30 33 34 nan nan nan 27 25 25 30 nan nan nan nan
nan nan nan nan nan nan nan nan nan nan nan nan nan nan nan nan nan nan nan nan nan nan nan nan nan nan nan nan nan nan nan nan nan nan nan nan nan nan nan nan nan nan nan nan nan nan nan nan nan nan nan nan nan nan nan nan nan nan nan nan nan nan nan nan nan 27 nan nan nan nan nan nan 30 nan nan nan nan nan 22 27 30 30 nan nan nan
nan nan nan nan nan nan nan nan nan nan nan nan nan nan nan nan nan nan nan nan nan nan nan nan nan nan nan nan nan nan nan nan nan nan nan nan nan nan nan nan nan nan nan nan nan nan nan nan nan nan nan nan nan nan nan nan nan nan nan nan nan nan nan nan nan nan nan nan nan nan nan nan nan 29 nan nan nan 23 25 27 28 29 nan nan nan
nan nan nan nan nan nan nan 27 nan nan 26 nan nan nan nan nan nan nan nan nan nan nan nan nan nan nan nan nan nan nan nan nan nan nan nan nan nan nan nan nan nan nan nan nan nan nan nan nan nan nan nan nan nan nan nan nan nan nan nan nan nan nan nan nan nan nan nan nan nan nan nan nan nan nan nan 28 26 24 27 27 27 nan nan nan nan
nan nan nan nan nan nan nan nan nan nan 26 nan nan nan nan nan nan nan nan nan nan nan nan nan nan nan nan nan nan nan nan nan nan nan nan nan nan nan nan nan nan nan nan nan nan nan nan nan nan nan nan nan nan nan nan nan nan nan nan nan nan nan nan nan nan nan nan nan nan nan nan nan nan nan nan 27 26 24 25 nan 26 nan nan nan nan
nan nan nan nan nan nan nan nan nan 26 25 nan 27 nan nan nan nan nan nan nan nan nan nan nan nan nan nan nan nan nan nan nan nan nan nan nan nan nan nan nan nan nan nan nan nan nan nan nan nan nan nan nan nan nan nan nan nan nan nan nan nan nan nan nan nan nan nan nan nan nan nan nan nan nan nan 26 26 26 25 nan nan 24 nan nan nan
nan nan nan nan nan nan nan nan nan nan nan nan nan 27 nan nan nan nan nan nan nan nan nan nan nan nan nan nan nan nan nan nan nan nan nan nan nan nan nan nan nan nan nan nan nan nan nan nan nan nan nan nan nan nan nan nan nan nan nan nan nan nan nan nan nan nan nan nan nan nan nan nan nan nan nan 26 29 27 25 nan 23 24 nan nan nan
nan nan nan nan nan nan nan nan nan nan 27 nan nan nan nan nan nan nan nan nan nan nan nan nan nan nan nan nan nan nan nan nan nan nan nan nan nan nan nan nan nan nan nan nan nan nan nan nan nan nan nan nan nan nan nan nan nan nan nan nan nan nan nan nan nan nan nan nan nan nan nan nan nan nan nan nan 33 32 30 nan nan nan nan nan nan
nan nan nan nan nan nan nan nan nan nan nan nan 27 25 nan 26 nan nan 26 nan nan nan nan nan nan nan nan nan nan nan nan nan nan nan nan nan nan nan nan nan nan nan nan nan nan nan nan nan nan nan nan nan nan nan nan nan nan nan nan nan nan nan nan nan nan nan nan nan nan nan nan nan nan nan nan nan nan nan nan nan nan nan nan nan nan
nan nan nan nan nan nan nan nan nan nan nan nan 27 26 nan nan 25 25 nan nan nan nan nan nan nan nan nan nan nan nan nan nan nan nan nan nan nan nan nan nan nan nan nan nan nan nan nan nan nan nan nan nan nan nan nan nan nan nan nan nan nan nan nan nan nan nan nan nan nan nan nan nan nan nan nan nan nan nan nan nan nan nan nan nan nan
nan nan nan nan nan nan nan nan nan nan nan nan nan 27 nan 25 25 26 nan nan nan nan nan nan nan nan nan nan nan nan nan nan nan nan nan nan nan nan nan nan nan nan nan nan nan nan nan nan nan nan nan nan nan nan nan nan nan nan nan nan nan nan nan nan nan nan nan nan nan nan nan nan nan nan nan nan nan nan nan nan nan nan nan nan nan
nan nan nan nan nan nan nan nan nan nan nan nan nan 25 26 26 25 26 nan nan nan nan nan nan nan nan nan nan nan nan nan nan nan nan nan nan nan nan nan nan nan nan nan nan nan nan nan nan nan nan nan nan nan nan nan nan nan nan nan nan nan nan nan nan nan nan nan nan nan nan nan nan nan nan nan nan nan nan nan nan nan nan nan nan nan
nan nan nan nan nan nan nan nan nan nan nan nan nan nan 26 26 26 nan nan nan nan nan nan nan nan nan nan nan nan nan nan nan nan nan nan nan nan nan nan nan nan nan nan nan nan nan nan nan nan nan nan nan nan nan nan nan nan nan nan nan nan nan nan nan nan nan nan nan nan nan nan nan nan nan nan nan nan nan nan nan nan nan nan nan nan
nan nan nan nan nan nan nan nan nan nan nan nan nan nan nan 26 24 25 nan nan nan nan nan nan nan nan nan nan nan nan nan nan nan nan nan nan nan nan nan nan nan nan nan nan nan nan nan nan nan nan nan nan nan nan nan nan nan nan nan nan nan nan nan nan nan nan nan nan nan nan nan nan nan nan nan nan nan nan nan nan nan nan nan nan nan
nan nan nan nan nan nan nan nan nan nan nan nan nan nan nan 27 26 24 25 nan nan nan nan nan nan nan nan nan nan nan nan nan nan nan nan nan nan nan nan nan nan nan nan nan nan nan nan nan nan nan nan nan nan nan nan nan nan nan nan nan nan nan nan nan nan nan nan nan nan nan nan nan nan nan nan nan nan nan nan nan nan nan nan nan nan
nan nan nan nan nan nan nan nan nan nan nan nan nan nan nan nan nan nan 25 27 27 26 28 nan nan nan nan nan nan nan nan nan nan nan nan nan nan nan nan nan nan nan nan nan nan nan nan nan nan nan nan nan nan nan nan nan nan nan nan nan nan nan nan nan nan nan nan nan nan nan nan nan nan nan nan nan nan nan nan nan nan nan nan nan nan
nan nan nan nan nan nan nan nan nan nan nan nan nan nan nan nan nan nan 24 24 25 27 nan nan nan nan nan nan nan nan nan nan nan nan nan nan nan nan nan nan nan nan nan nan nan nan nan nan nan nan nan nan nan nan nan nan nan nan nan nan nan nan nan nan nan nan nan nan nan nan nan nan nan nan nan nan nan nan nan nan nan nan nan nan nan
Wind_Direction
287 287 287 nan 289 290 293 293 296 297 296 298 298 nan 297 nan nan nan 303 nan nan nan nan nan nan nan nan nan nan nan nan nan nan nan nan nan nan nan nan nan nan nan nan nan nan 249 247 248 246 244 239 238 233 229 234 243 250 246 241 250 248 242 246 258 250 255 255 253 252 239 247 243 232 229 218 223 228 231 225 218 233 261 254 255 257
288 277 285 289 290 291 291 294 296 300 299 299 299 299 nan nan nan nan nan 301 nan nan nan nan nan nan nan nan nan nan nan nan nan nan nan nan nan nan nan nan nan nan nan nan nan nan nan nan 243 242 239 239 240 236 236 239 237 243 231 235 249 249 246 255 257 258 252 255 254 240 229 234 245 238 228 223 232 232 230 220 215 237 256 250 255
263 287 289 291 294 298 295 293 296 299 298 300 299 297 306 311 nan nan nan nan nan nan nan nan nan nan nan nan nan nan nan nan nan nan nan nan nan nan nan nan nan nan nan nan nan nan nan 231 235 237 234 232 233 231 231 231 232 242 245 241 246 253 249 246 252 248 252 254 252 249 244 240 234 238 241 236 231 233 233 226 217 217 231 244 249
251 263 301 298 301 300 294 294 295 299 301 302 303 302 307 304 nan 305 nan 300 nan nan nan nan nan nan nan nan nan nan nan nan nan nan nan nan nan nan nan nan nan nan nan nan nan nan nan nan 228 228 226 224 227 228 228 223 232 239 237 240 245 244 254 254 252 260 255 261 256 253 252 249 242 238 237 236 239 236 237 233 224 222 218 216 239
287 288 291 303 305 300 299 298 297 304 305 306 304 307 nan 304 nan nan 302 nan nan nan nan nan nan nan nan nan nan nan nan nan nan nan nan nan nan nan nan nan nan nan nan nan nan nan nan nan 228 nan nan 218 220 225 227 222 219 229 244 245 244 243 247 252 250 248 253 249 249 254 252 250 249 250 245 240 247 241 243 244 239 232 227 222 219
295 280 292 315 301 294 303 307 306 311 310 309 306 310 305 304 303 nan 301 nan nan nan nan nan nan nan nan nan nan nan nan nan nan nan nan nan nan nan nan nan nan nan nan nan nan nan nan nan 231 nan nan nan 218 220 221 221 217 221 232 237 240 243 242 248 247 246 249 246 243 241 244 248 256 255 252 247 243 240 240 247 250 244 238 230 223
293 299 308 303 297 296 316 319 316 319 313 312 309 311 311 306 303 nan 300 297 nan nan nan nan nan nan nan nan nan nan nan nan nan nan nan nan nan nan nan nan nan nan nan nan nan nan nan 231 228 225 nan nan 217 221 222 220 219 218 226 236 231 239 242 243 248 249 243 247 248 248 246 246 250 255 253 248 243 244 244 240 243 247 243 238 230
304 304 305 306 312 321 326 324 321 318 315 315 308 309 312 303 302 301 298 nan nan nan nan nan nan nan nan nan nan nan nan nan nan nan nan nan nan nan nan nan nan nan nan nan nan nan nan 230 227 225 225 218 215 219 221 221 220 219 223 233 234 239 247 245 240 244 248 246 242 249 249 246 251 245 244 247 246 245 242 241 240 243 246 245 239
313 310 313 312 315 319 327 324 322 319 319 311 312 310 308 305 301 299 295 294 290 nan nan nan nan nan nan nan nan nan nan nan nan nan nan nan nan nan nan nan nan nan nan nan nan nan nan 238 229 226 225 224 218 218 221 221 222 224 226 228 235 241 244 243 242 244 248 248 248 245 249 251 250 250 249 248 248 250 243 242 239 240 242 246 247
317 317 319 323 323 324 327 324 319 321 316 312 313 311 311 306 303 301 297 295 289 nan nan nan nan nan nan nan nan nan nan nan nan nan nan nan nan nan nan nan nan nan nan nan nan nan nan 248 242 230 229 228 225 223 219 220 225 228 229 231 235 235 244 245 245 247 249 247 250 249 249 248 248 247 248 250 245 246 245 243 245 247 242 242 248
321 320 324 325 322 319 319 324 324 321 313 312 314 316 314 306 304 301 298 292 288 nan nan nan nan nan nan nan nan nan nan nan nan nan nan nan nan nan nan nan nan nan 266 nan nan nan 250 251 252 245 234 231 231 227 226 224 225 228 230 233 236 241 242 245 246 252 252 249 253 249 249 251 249 250 251 250 250 248 244 239 239 244 246 238 246
326 320 317 317 315 317 320 327 319 318 314 314 312 314 311 310 306 304 300 293 287 284 nan nan nan nan nan nan nan nan nan nan nan nan nan nan nan nan nan nan nan nan nan 258 255 nan 252 254 254 253 248 242 236 234 230 227 228 226 229 231 232 237 244 247 247 252 255 250 249 255 251 244 239 243 246 245 248 246 247 244 246 243 238 239 242
329 315 315 317 317 319 320 317 315 318 317 313 312 312 309 309 312 307 302 296 289 284 nan nan nan nan nan nan nan nan nan nan nan nan nan nan nan nan nan nan nan nan nan nan nan nan nan 252 257 259 259 257 250 240 234 229 231 232 230 228 232 234 240 245 247 251 259 254 252 254 257 259 253 247 249 248 248 246 246 246 244 244 239 239 246
294 303 310 314 308 300 301 310 318 317 315 314 317 314 308 308 309 307 302 296 291 286 nan nan nan nan nan nan nan nan nan nan nan nan nan nan nan nan nan nan nan nan nan nan nan nan nan nan nan 253 254 255 254 248 242 235 231 234 233 229 228 233 240 241 250 251 250 252 256 255 256 257 256 256 251 247 253 258 251 249 246 244 240 234 242
331 330 328 329 322 327 326 311 308 297 303 318 320 318 313 310 308 307 303 297 294 289 281 nan nan nan nan nan nan nan nan nan nan nan nan nan nan nan nan nan nan nan nan nan nan nan nan nan nan nan 254 255 256 257 254 249 242 238 237 235 231 233 234 238 244 247 249 255 259 258 252 256 254 252 255 254 255 261 257 253 253 247 241 238 238
nan nan nan 317 312 318 314 329 318 318 335 327 323 318 313 312 308 307 304 298 298 292 286 282 nan nan nan nan nan nan nan nan nan nan nan nan nan nan nan nan nan nan nan nan nan nan nan nan nan nan nan 252 254 256 256 255 250 244 240 238 234 235 231 232 237 243 246 251 254 253 253 256 256 256 256 255 252 255 256 253 255 252 250 244 243
nan nan 318 316 315 317 315 318 319 327 327 321 319 320 317 314 309 308 304 300 299 298 292 nan nan nan nan nan nan nan nan nan nan nan nan nan nan nan nan nan nan nan nan nan nan nan nan nan nan nan nan nan nan 251 254 253 251 250 246 241 239 238 236 232 233 237 244 251 257 263 261 253 257 260 258 257 256 257 254 251 253 253 253 250 247
nan nan 306 305 321 322 315 315 324 318 318 318 320 316 314 314 312 310 304 302 298 295 293 288 nan nan nan nan nan nan nan nan nan nan nan nan nan nan nan nan nan nan nan nan nan nan nan nan nan nan nan nan nan nan 252 252 250 248 246 245 243 243 241 240 237 236 241 247 249 257 262 260 256 257 258 260 263 263 254 252 253 250 250 252 247
323 317 313 308 309 309 317 319 324 322 322 322 319 313 313 313 314 309 305 303 298 293 289 286 283 nan nan nan nan nan nan nan nan nan nan nan nan nan nan nan nan nan nan nan nan nan nan nan nan nan nan nan nan nan nan 252 250 249 247 245 243 242 241 241 241 239 242 249 247 249 255 258 262 260 256 262 265 262 257 255 256 255 253 250 246
334 nan 313 308 306 310 312 303 318 322 321 319 318 316 319 316 312 308 305 304 302 298 294 289 285 nan nan nan nan nan nan nan nan nan nan nan nan nan nan nan nan nan nan nan nan nan nan nan nan nan nan nan nan nan nan nan 249 249 247 246 244 240 240 240 240 242 239 245 250 252 256 258 259 258 256 257 260 262 259 256 256 257 252 249 250
339 330 324 317 317 307 308 319 321 322 311 293 299 304 311 310 312 312 310 309 306 303 298 294 286 nan nan nan nan nan nan nan nan nan nan nan nan nan nan nan nan nan nan nan nan nan nan nan nan nan nan nan nan nan nan nan nan nan nan nan nan nan 240 240 240 238 242 242 241 244 248 253 256 257 257 254 255 256 247 247 257 261 257 251 251
325 336 318 301 291 298 332 323 316 326 314 315 318 315 317 313 320 319 315 314 311 306 303 300 293 nan nan nan nan nan nan nan nan nan nan nan nan nan nan nan nan nan nan nan nan nan nan nan nan nan nan nan nan nan nan nan nan nan nan nan nan nan nan 239 239 238 237 241 243 241 239 248 250 250 251 255 256 259 260 251 255 260 260 256 253
339 342 335 331 336 333 337 338 358 312 303 297 296 322 324 328 332 328 325 323 317 313 311 304 298 nan nan nan nan nan nan nan nan nan nan nan nan nan nan nan nan nan nan nan nan nan nan nan nan nan nan nan nan nan nan nan nan nan nan nan nan nan nan 237 235 237 237 241 243 245 245 250 252 250 250 254 256 257 254 255 251 251 252 253 252
nan 345 343 351 341 333 339 335 316 330 316 315 324 343 335 332 327 326 325 328 323 316 311 308 302 nan nan nan nan nan nan nan nan nan nan nan nan nan nan nan nan nan nan nan nan nan nan nan nan nan nan nan nan nan nan nan nan nan nan nan nan nan nan nan 234 236 234 237 234 239 243 246 249 249 249 256 259 258 257 250 250 254 248 252 251
nan nan 346 357 348 336 nan nan 324 326 324 319 329 337 335 332 330 328 327 325 321 317 316 312 305 nan nan nan nan nan nan nan nan nan nan nan nan nan nan nan nan nan nan nan nan nan nan nan nan nan nan nan nan nan nan nan nan nan nan nan nan nan nan nan 234 235 238 243 239 239 239 241 246 245 244 248 253 254 253 250 250 253 255 255 252
332 328 331 339 349 324 306 316 324 318 326 331 332 332 338 334 324 326 323 322 318 316 317 314 307 nan nan nan nan nan nan nan nan nan nan nan nan nan nan nan nan nan nan nan nan nan nan nan nan nan nan nan nan nan nan nan nan nan nan nan nan nan nan nan 231 234 232 244 239 238 238 238 243 251 253 248 249 251 253 260 259 253 248 255 259
nan 331 nan 329 339 334 326 322 321 nan nan 314 nan 329 333 327 328 327 322 317 316 315 316 314 308 nan nan nan nan nan nan nan nan nan nan nan nan nan nan nan nan nan nan nan nan nan nan nan nan nan nan nan nan nan nan nan nan nan nan nan nan nan nan nan nan 228 232 238 247 243 242 242 247 253 254 252 250 252 254 260 263 261 252 254 261
nan 336 337 349 352 346 nan 334 316 298 289 298 nan nan nan 323 324 323 321 319 314 316 317 317 nan nan nan nan nan nan nan nan nan nan nan nan nan nan nan nan nan nan nan nan nan nan nan nan nan nan nan nan nan nan nan nan nan nan nan nan nan nan nan nan 222 225 230 234 245 244 244 247 248 252 255 258 253 255 253 258 263 263 257 253 254
nan nan nan 351 nan 330 319 314 307 300 297 300 317 319 314 317 318 319 320 319 315 317 320 nan nan nan nan nan nan nan nan nan nan nan nan nan nan nan nan nan nan nan nan nan nan nan nan nan nan nan nan nan nan nan nan nan nan nan nan nan nan nan 217 nan nan 222 nan 236 238 248 247 248 250 253 254 253 256 252 256 259 262 267 265 259 258
nan nan nan 335 322 323 318 319 320 318 319 315 310 310 308 306 314 319 320 317 317 316 321 nan nan nan nan nan nan nan nan nan nan nan nan nan nan nan nan nan nan nan nan nan nan nan nan nan nan nan nan nan nan nan nan nan nan nan nan nan nan nan nan nan nan nan nan 233 240 245 252 246 249 252 257 257 256 nan 253 256 258 257 260 261 261
nan nan nan nan nan nan nan nan nan nan 326 324 316 312 310 312 315 317 318 319 323 324 323 nan nan nan nan nan nan nan nan nan nan nan nan nan nan nan nan nan nan nan nan nan nan nan nan nan nan nan nan nan nan nan nan nan nan nan nan nan nan nan nan nan nan nan nan nan 237 239 246 246 250 252 251 254 256 nan nan nan nan nan nan 256 259
nan nan nan nan nan nan nan nan nan nan nan nan 316 315 316 317 318 315 nan 320 320 323 324 nan nan nan nan nan nan nan nan nan nan nan nan nan nan nan nan nan nan nan nan nan nan nan nan nan nan nan nan nan nan nan nan nan nan nan nan nan nan nan nan nan nan nan nan 228 230 237 243 247 249 249 260 256 254 256 nan nan nan nan nan nan nan
nan nan nan nan nan nan 327 nan nan nan nan nan nan nan 306 nan 308 309 nan 306 nan 316 nan nan nan nan nan nan nan nan nan nan nan nan nan nan nan nan nan nan nan nan nan nan nan nan nan nan nan nan nan nan nan nan nan nan nan nan nan nan nan nan nan nan nan nan nan 226 228 232 240 237 246 240 243 256 262 258 258 nan nan nan nan nan nan
nan nan nan nan nan nan nan nan nan nan nan nan nan nan nan nan nan nan nan nan nan nan nan nan nan nan nan nan nan nan nan nan nan nan nan nan nan nan nan nan nan nan nan nan nan nan nan nan nan nan nan nan nan nan nan nan nan nan nan nan nan nan nan nan nan nan 223 227 227 230 231 235 241 243 nan nan 244 257 256 257 nan nan nan nan nan
nan nan nan nan nan nan nan nan nan nan nan nan nan nan nan nan nan nan nan nan nan nan nan nan nan nan nan nan nan nan nan nan nan nan nan nan nan nan nan nan nan nan nan nan nan nan nan nan nan nan nan nan nan nan nan nan nan nan nan nan nan nan nan 217 nan 217 229 229 nan nan 228 229 238 241 nan nan nan 235 243 243 250 nan nan nan nan
nan nan nan nan nan nan nan nan nan nan nan nan nan nan nan nan nan nan nan nan nan nan nan nan nan nan nan nan nan nan nan nan nan nan nan nan nan nan nan nan nan nan nan nan nan nan nan nan nan nan nan nan nan nan nan nan nan nan nan nan nan nan nan nan nan 224 nan nan nan nan nan nan 236 nan nan nan nan nan 238 252 254 256 nan nan nan
nan nan nan nan nan nan nan nan nan nan nan nan nan nan nan nan nan nan nan nan nan nan nan nan nan nan nan nan nan nan nan nan nan nan nan nan nan nan nan nan nan nan nan nan nan nan nan nan nan nan nan nan nan nan nan nan nan nan nan nan nan nan nan nan nan nan nan nan nan nan nan nan nan 234 nan nan nan 215 247 250 254 255 nan nan nan
nan nan nan nan nan nan nan 336 nan nan 336 nan nan nan nan nan nan nan nan nan nan nan nan nan nan nan nan nan nan nan nan nan nan nan nan nan nan nan nan nan nan nan nan nan nan nan nan nan nan nan nan nan nan nan nan nan nan nan nan nan nan nan nan nan nan nan nan nan nan nan nan nan nan nan nan 215 212 219 248 249 254 nan nan nan nan
nan nan nan nan nan nan nan nan nan nan 335 nan nan nan nan nan nan nan nan nan nan nan nan nan nan nan nan nan nan nan nan nan nan nan nan nan nan nan nan nan nan nan nan nan nan nan nan nan nan nan nan nan nan nan nan nan nan nan nan nan nan nan nan nan nan nan nan nan nan nan nan nan nan nan nan 216 213 221 247 nan 253 nan nan nan nan
nan nan nan nan nan nan nan nan nan 340 338 nan 337 nan nan nan nan nan nan nan nan nan nan nan nan nan nan nan nan nan nan nan nan nan nan nan nan nan nan nan nan nan nan nan nan nan nan nan nan nan nan nan nan nan nan nan nan nan nan nan nan nan nan nan nan nan nan nan nan nan nan nan nan nan nan 215 223 230 245 nan nan 250 nan nan nan
nan nan nan nan nan nan nan nan nan nan nan nan nan 336 nan nan nan nan nan nan nan nan nan nan nan nan nan nan nan nan nan nan nan nan nan nan nan nan nan nan nan nan nan nan nan nan nan nan nan nan nan nan nan nan nan nan nan nan nan nan nan nan nan nan nan nan nan nan nan nan nan nan nan nan nan 221 233 241 245 nan 246 250 nan nan nan
nan nan nan nan nan nan nan nan nan nan 336 nan nan nan nan nan nan nan nan nan nan nan nan nan nan nan nan nan nan nan nan nan nan nan nan nan nan nan nan nan nan nan nan nan nan nan nan nan nan nan nan nan nan nan nan nan nan nan nan nan nan nan nan nan nan nan nan nan nan nan nan nan nan nan nan nan 239 237 244 nan nan nan nan nan nan
nan nan nan nan nan nan nan nan nan nan nan nan 336 336 nan 336 nan nan 329 nan nan nan nan nan nan nan nan nan nan nan nan nan nan nan nan nan nan nan nan nan nan nan nan nan nan nan nan nan nan nan nan nan nan nan nan nan nan nan nan nan nan nan nan nan nan nan nan nan nan nan nan nan nan nan nan nan nan nan nan nan nan nan nan nan nan
nan nan nan nan nan nan nan nan nan nan nan nan 334 335 nan nan 338 335 nan nan nan nan nan nan nan nan nan nan nan nan nan nan nan nan nan nan nan nan nan nan nan nan nan nan nan nan nan nan nan nan nan nan nan nan nan nan nan nan nan nan nan nan nan nan nan nan nan nan nan nan nan nan nan nan nan nan nan nan nan nan nan nan nan nan nan
nan nan nan nan nan nan nan nan nan nan nan nan nan 334 nan 335 333 332 nan nan nan nan nan nan nan nan nan nan nan nan nan nan nan nan nan nan nan nan nan nan nan nan nan nan nan nan nan nan nan nan nan nan nan nan nan nan nan nan nan nan nan nan nan nan nan nan nan nan nan nan nan nan nan nan nan nan nan nan nan nan nan nan nan nan nan
nan nan nan nan nan nan nan nan nan nan nan nan nan 329 334 332 330 331 nan nan nan nan nan nan nan nan nan nan nan nan nan nan nan nan nan nan nan nan nan nan nan nan nan nan nan nan nan nan nan nan nan nan nan nan nan nan nan nan nan nan nan nan nan nan nan nan nan nan nan nan nan nan nan nan nan nan nan nan nan nan nan nan nan nan nan
nan nan nan nan nan nan nan nan nan nan nan nan nan nan 327 331 331 nan nan nan nan nan nan nan nan nan nan nan nan nan nan nan nan nan nan nan nan nan nan nan nan nan nan nan nan nan nan nan nan nan nan nan nan nan nan nan nan nan nan nan nan nan nan nan nan nan nan nan nan nan nan nan nan nan nan nan nan nan nan nan nan nan nan nan nan
nan nan nan nan nan nan nan nan nan nan nan nan nan nan nan 326 328 328 nan nan nan nan nan nan nan nan nan nan nan nan nan nan nan nan nan nan nan nan nan nan nan nan nan nan nan nan nan nan nan nan nan nan nan nan nan nan nan nan nan nan nan nan nan nan nan nan nan nan nan nan nan nan nan nan nan nan nan nan nan nan nan nan nan nan nan
nan nan nan nan nan nan nan nan nan nan nan nan nan nan nan 323 324 325 324 nan nan nan nan nan nan nan nan nan nan nan nan nan nan nan nan nan nan nan nan nan nan nan nan nan nan nan nan nan nan nan nan nan nan nan nan nan nan nan nan nan nan nan nan nan nan nan nan nan nan nan nan nan nan nan nan nan nan nan nan nan nan nan nan nan nan
nan nan nan nan nan nan nan nan nan nan nan nan nan nan nan nan nan nan 320 319 321 323 323 nan nan nan nan nan nan nan nan nan nan nan nan nan nan nan nan nan nan nan nan nan nan nan nan nan nan nan nan nan nan nan nan nan nan nan nan nan nan nan nan nan nan nan nan nan nan nan nan nan nan nan nan nan nan nan nan nan nan nan nan nan nan
nan nan nan nan nan nan nan nan nan nan nan nan nan nan nan nan nan nan 317 316 319 319 nan nan nan nan nan nan nan nan nan nan nan nan nan nan nan nan nan nan nan nan nan nan nan nan nan nan nan nan nan nan nan nan nan nan nan nan nan nan nan nan nan nan nan nan nan nan nan nan nan nan nan nan nan nan nan nan nan nan nan nan nan nan nan